This demonstration page uses our WeatherBlox Daily Observations layout. Learn more.

39.92423, -83.80882

Hourly Observations for December 30, 2018

Temp ( °F °C ) Dew Point ( °F °C ) Humidity (%) Winds ( mph kmh ) Pressure ( in mb ) Visibility ( mi km ) Precip ( " mm )
1:56 am 01:56 Cloudy with Light Wintry Mix 33 0.6 29 -1.7 85 85 W 10 17 30.22 1023 10 16.0934 0 0.0254
2:56 am 02:56 Cloudy 33 0.6 28 -2.2 82 82 WSW 10 17 30.23 1024 10 16.0934 0 0
4:56 am 04:56 Clear 30 -1.1 28 -2.2 92 92 W 8 13 30.19 1023 10 16.0934 0 0
5:56 am 05:56 Clear 29 -1.7 28 -2.2 96 96 WSW 7 11 30.21 1023 10 16.0934 0 0
6:56 am 06:56 Mostly Cloudy 28 -2.2 27 -2.8 96 96 W 7 11 30.22 1023 10 16.0934 0 0
7:56 am 07:56 Cloudy 28 -2.2 27 -2.8 96 96 Calm 30.24 1024 10 16.0934 0 0
8:56 am 08:56 Cloudy 30 -1.1 27 -2.8 88 88 SW 5 7 30.24 1024 10 16.0934 0 0
9:56 am 09:56 Mostly Cloudy 30 -1.1 27 -2.8 88 88 SW 6 9 30.24 1024 10 16.0934 0 0
10:56 am 10:56 Mostly Cloudy 31 -0.6 28 -2.2 89 89 SSW 8 13 30.23 1024 10 16.0934 0 0
11:11 am 11:11 Partly Cloudy 30 -1 28 -2 93 93 SW 8 13 30.24 1024 10 16.0934 0 0
11:56 am 11:56 Mostly Sunny 33 0.6 29 -1.7 85 85 SW 6 9 30.2 1023 10 16.0934 0 0
12:56 pm 12:56 Sunny 34 1.1 28 -2.2 79 79 SSW 8 13 30.17 1022 10 16.0934 0 0
1:56 pm 13:56 Sunny 37 2.8 28 -2.2 70 70 SSW 9 15 30.16 1021 10 16.0934 0 0
2:56 pm 14:56 Sunny 37 2.8 29 -1.7 73 73 SW 8 13 30.15 1021 10 16.0934 0 0
3:56 pm 15:56 Sunny 37 2.8 29 -1.7 73 73 SSW 6 9 30.16 1021 10 16.0934 0 0
4:56 pm 16:56 Sunny 36 2.2 31 -0.6 82 82 Calm 30.16 1021 10 16.0934 0 0
5:56 pm 17:56 Clear 35 1.7 30 -1.1 82 82 SSE 5 7 30.17 1022 10 16.0934 0 0
6:56 pm 18:56 Clear 31 -0.6 29 -1.7 92 92 E 5 7 30.19 1022 10 16.0934 0 0
7:56 pm 19:56 Clear 32 0 31 -0.6 96 96 SE 6 9 30.18 1022 10 16.0934 0 0
8:56 pm 20:56 Clear 30 -1.1 29 -1.7 96 96 ESE 6 9 30.16 1021 10 16.0934 0 0
9:56 pm 21:56 Clear 32 0 30 -1.1 92 92 SE 7 11 30.15 1021 10 16.0934 0 0
10:56 pm 22:56 Clear 34 1.1 30 -1.1 85 85 ESE 7 11 30.15 1021 10 16.0934 0 0
11:56 pm 23:56 Clear 35 1.7 30 -1.1 82 82 SE 8 13 30.14 1021 10 16.0934 0 0

Powered by AerisWeather